Location: Tamazert
(32.6352°N, 5.2072°W)
Time: 19:04:07
(UTC+00:00)

deb Explorer IX - Pass Details

Date: 09 October 2022
Orbit: 533 x 1057 km, 38.8° (Epoch: 06 December)

Event Time Altitude Azimuth Distance (km) Brightness Sun altitude
Exits shadow 03:54:07 30° 70° (ENE) 1,078 ? -31.4°
Drops below altitude 10° 03:56:30 10° 68° (ENE) 1,989 ? -30.9°
Sets 03:58:59 0° 68° (ENE) 2,978 ? -30.4°
